Simultaneous Nadir Overpasses (SNOs) Predictions

Prediction of SNOs between AQUA and NPP Satellite Orbit:

Table of predicted SNOs for the next 14.0 days since TLE Epoch: 1/25/2019
Index Date (AQUA) Time (AQUA) Lat,Lon (AQUA) SZA (AQUA ) Date (NPP) Time (NPP) Lat,Lon (NPP) SZA (NPP ) Distance(km) Time Diff (sec)
1 01/27/2019 21:48:48 75.86, 91.49 115.93 01/27/2019 21:48:02 75.86, 91.51 115.97 0.50 46
2 01/27/2019 22:37:55 -76.84, -97.63 65.21 01/27/2019 22:38:26 -76.85, -97.61 65.24 0.70 31
3 01/30/2019 14:05:11 76.15,-151.74 114.93 01/30/2019 14:04:49 76.15,-151.75 114.95 0.25 22
4 01/30/2019 14:54:19 -77.08, 19.11 66.16 01/30/2019 14:55:14 -77.07, 19.09 66.20 0.55 55
5 02/02/2019 05:33:27 -72.49, 147.66 61.84 02/02/2019 05:32:13 -72.57, 147.25 61.71 16.09 74
6 02/02/2019 06:21:34 76.47, -34.79 113.84 02/02/2019 06:21:36 76.47, -34.81 113.85 0.60 2
7 02/02/2019 07:07:16 -81.37,-154.14 78.73 02/02/2019 07:08:29 -80.74,-155.37 79.03 73.08 73
8 02/04/2019 21:48:48 -76.01, -88.05 66.38 02/04/2019 21:47:56 -76.02, -87.95 66.36 2.89 52
9 02/04/2019 22:37:58 76.74, 82.02 112.77 02/04/2019 22:38:24 76.74, 82.00 112.75 0.60 26
10 02/07/2019 14:05:11 -76.33, 28.87 67.54 02/07/2019 14:04:43 -76.34, 28.95 67.54 2.44 28




NCC Satellite Simultaneous Nadir Overpasses (SNOs) Prediction Service
